KLM52U LEZL-EHAM

Flight info

Callsign KLM52U
Flight time 2h 23m
Altitude 34000
Route HIJ DCT PARKA DCT TLD DCT SIE DCT EDIGO DCT DGO L176 LUSEM DCT LULUT DCT ADABI DCT BOKNO DCT DEVRO DCT VANAD DCT PIWIZ DCT VADOM DCT BAMES DCT ARSAF DCT EGOZE DCT CMB DCT VEKIN DCT ADUTO N873 FERDI/N0390F240 Y18 DENUT
Aircraft A321/M-SDE3FGHIRWY/LB1

Departure

Time 2026-05-04 15:14
Airport Seville Airport (LEZL)

Arrival

Time 2026-05-04 17:38
Airport Amsterdam Airport Schiphol (EHAM)
Time Latitude Longitude Altitude Speed Heading
2026-05-04 14:55 37.42299 -5.89838 98 ft 0 kts 315°
2026-05-04 15:05 37.42284 -5.89818 97 ft 4 kts 315°
2026-05-04 15:05 37.42267 -5.89797 97 ft 4 kts 323°
2026-05-04 15:06 37.42246 -5.89788 96 ft 4 kts 24°
2026-05-04 15:06 37.42226 -5.89805 97 ft 1 kts 44°
2026-05-04 15:06 37.42223 -5.89809 97 ft 0 kts 44°
2026-05-04 15:08 37.42224 -5.89809 97 ft 1 kts 44°
2026-05-04 15:08 37.42226 -5.89805 97 ft 1 kts 44°
2026-05-04 15:08 37.42238 -5.89791 97 ft 2 kts 44°
2026-05-04 15:09 37.42256 -5.89768 100 ft 8 kts 51°
2026-05-04 15:09 37.42232 -5.89678 99 ft 16 kts 133°
2026-05-04 15:09 37.42156 -5.89580 100 ft 15 kts 135°
2026-05-04 15:10 37.42086 -5.89490 101 ft 14 kts 134°
2026-05-04 15:10 37.41983 -5.89109 104 ft 12 kts 90°
2026-05-04 15:11 37.41984 -5.89005 113 ft 12 kts 90°
2026-05-04 15:11 37.41984 -5.88901 105 ft 12 kts 90°
2026-05-04 15:11 37.41985 -5.88748 106 ft 24 kts 90°
2026-05-04 15:11 37.41985 -5.88486 107 ft 29 kts 90°
2026-05-04 15:12 37.41986 -5.88236 109 ft 28 kts 89°
2026-05-04 15:12 37.41987 -5.87993 110 ft 28 kts 90°
2026-05-04 15:12 37.41988 -5.87755 111 ft 27 kts 90°
2026-05-04 15:12 37.41984 -5.87550 113 ft 21 kts 101°
2026-05-04 15:13 37.41906 -5.87431 116 ft 16 kts 169°
2026-05-04 15:13 37.41819 -5.87487 118 ft 14 kts 237°
2026-05-04 15:13 37.41801 -5.87610 117 ft 16 kts 269°
2026-05-04 15:13 37.41798 -5.87983 112 ft 72 kts 270°
2026-05-04 15:14 37.41795 -5.88881 107 ft 133 kts 270°
2026-05-04 15:14 37.41808 -5.90188 330 ft 156 kts 272°
2026-05-04 15:14 37.41864 -5.91598 778 ft 167 kts 274°
2026-05-04 15:14 37.42244 -5.92938 1409 ft 163 kts 314°
2026-05-04 15:15 37.43193 -5.93692 2067 ft 166 kts 327°
2026-05-04 15:15 37.44158 -5.94649 2484 ft 188 kts 314°
2026-05-04 15:15 37.45125 -5.95916 2799 ft 215 kts 313°
2026-05-04 15:16 37.47429 -5.98852 3986 ft 245 kts 315°
2026-05-04 15:16 37.48682 -6.00365 4806 ft 252 kts 315°
2026-05-04 15:16 37.51254 -6.03425 6721 ft 256 kts 315°
2026-05-04 15:17 37.52564 -6.04981 7583 ft 263 kts 314°
2026-05-04 15:17 37.55285 -6.08203 9279 ft 273 kts 314°
2026-05-04 15:17 37.56658 -6.09825 10162 ft 276 kts 314°
2026-05-04 15:18 37.58104 -6.11528 10635 ft 295 kts 316°
2026-05-04 15:18 37.59969 -6.12824 10950 ft 324 kts 343°
2026-05-04 15:18 37.62286 -6.12877 11466 ft 346 kts
2026-05-04 15:19 37.66187 -6.09193 12902 ft 371 kts 57°
2026-05-04 15:19 37.67512 -6.06371 13630 ft 377 kts 56°
2026-05-04 15:19 37.70769 -6.01083 14982 ft 385 kts 44°
2026-05-04 15:20 37.72642 -5.98642 15671 ft 389 kts 41°
2026-05-04 15:20 37.74605 -5.96264 16349 ft 393 kts 39°
2026-05-04 15:20 37.76631 -5.93903 16991 ft 398 kts 38°
2026-05-04 15:20 37.78694 -5.91550 17682 ft 402 kts 37°
2026-05-04 15:21 37.80792 -5.89182 18356 ft 406 kts 37°
2026-05-04 15:21 37.82914 -5.86798 18926 ft 410 kts 37°
2026-05-04 15:21 37.87232 -5.81961 20036 ft 419 kts 37°
2026-05-04 15:22 37.89422 -5.79509 20580 ft 422 kts 37°
2026-05-04 15:22 37.91634 -5.77032 21142 ft 426 kts 37°
2026-05-04 15:22 37.96108 -5.72015 22228 ft 433 kts 37°
2026-05-04 15:23 37.98373 -5.69473 22743 ft 438 kts 37°
2026-05-04 15:23 38.00666 -5.66895 23229 ft 443 kts 37°
2026-05-04 15:23 38.02980 -5.64294 23702 ft 446 kts 37°
2026-05-04 15:23 38.05313 -5.61669 24106 ft 450 kts 37°
2026-05-04 15:24 38.10006 -5.56379 25053 ft 453 kts 37°
2026-05-04 15:24 38.14732 -5.51041 25782 ft 459 kts 37°
2026-05-04 15:25 38.17129 -5.48332 26148 ft 462 kts 37°
2026-05-04 15:25 38.19535 -5.45611 26526 ft 465 kts 37°
2026-05-04 15:25 38.21961 -5.42864 26895 ft 468 kts 37°
2026-05-04 15:26 38.26849 -5.37321 27569 ft 473 kts 37°
2026-05-04 15:26 38.29308 -5.34528 27926 ft 476 kts 37°
2026-05-04 15:26 38.34291 -5.28863 28433 ft 485 kts 37°
2026-05-04 15:27 38.36810 -5.25993 28752 ft 487 kts 37°
2026-05-04 15:27 38.41885 -5.20201 29404 ft 492 kts 37°
2026-05-04 15:28 38.47087 -5.14646 30109 ft 487 kts 28°
2026-05-04 15:28 38.50069 -5.12559 30441 ft 478 kts 17°
2026-05-04 15:28 38.56387 -5.10722 31144 ft 457 kts 354°
2026-05-04 15:29 38.59538 -5.10740 31518 ft 451 kts 350°
2026-05-04 15:30 38.71958 -5.12039 32703 ft 447 kts 347°
2026-05-04 15:30 38.81214 -5.13066 33673 ft 445 kts 347°
2026-05-04 15:31 38.87383 -5.13699 34185 ft 445 kts 347°
2026-05-04 15:31 38.90465 -5.14013 34393 ft 445 kts 347°
2026-05-04 15:32 38.99819 -5.13612 34958 ft 464 kts
2026-05-04 15:32 39.05828 -5.10252 35391 ft 478 kts 24°
2026-05-04 15:33 39.11490 -5.05716 35742 ft 480 kts 27°
2026-05-04 15:34 39.19817 -4.98663 36201 ft 481 kts 27°
2026-05-04 15:34 39.22619 -4.96305 36326 ft 481 kts 27°
2026-05-04 15:34 39.28243 -4.91609 36540 ft 484 kts 27°
2026-05-04 15:35 39.33892 -4.86904 36861 ft 483 kts 27°
2026-05-04 15:35 39.36716 -4.84550 37000 ft 483 kts 27°
2026-05-04 15:35 39.39543 -4.82191 37133 ft 483 kts 27°
2026-05-04 15:36 39.45175 -4.77483 37377 ft 484 kts 27°
2026-05-04 15:36 39.50834 -4.72744 37608 ft 485 kts 28°
2026-05-04 15:37 39.53668 -4.70365 37715 ft 485 kts 27°
2026-05-04 15:37 39.56502 -4.67985 37789 ft 486 kts 28°
2026-05-04 15:37 39.62192 -4.63200 37933 ft 488 kts 28°
2026-05-04 15:38 39.67911 -4.58381 37950 ft 490 kts 28°
2026-05-04 15:38 39.73590 -4.53585 37953 ft 490 kts 28°
2026-05-04 15:39 39.79298 -4.48752 37945 ft 490 kts 28°
2026-05-04 15:40 39.87862 -4.41486 37941 ft 490 kts 28°
2026-05-04 15:40 39.93570 -4.36632 37943 ft 490 kts 28°
2026-05-04 15:41 39.99451 -4.32281 37940 ft 483 kts 21°
2026-05-04 15:41 40.04517 -4.29093 37942 ft 482 kts 20°
2026-05-04 15:42 40.11584 -4.24797 37936 ft 482 kts 19°
2026-05-04 15:42 40.17666 -4.21106 37941 ft 482 kts 20°
2026-05-04 15:43 40.23741 -4.17396 37938 ft 481 kts 20°
2026-05-04 15:43 40.29804 -4.13675 37937 ft 481 kts 20°
2026-05-04 15:44 40.34845 -4.10574 37938 ft 481 kts 20°
2026-05-04 15:44 40.40900 -4.06844 37974 ft 481 kts 20°
2026-05-04 15:45 40.46958 -4.03105 37941 ft 481 kts 20°
2026-05-04 15:45 40.53008 -3.99363 37950 ft 481 kts 20°
2026-05-04 15:46 40.59054 -3.95616 37964 ft 481 kts 20°
2026-05-04 15:46 40.65104 -3.91860 37954 ft 480 kts 20°
2026-05-04 15:47 40.71147 -3.88100 37958 ft 480 kts 20°
2026-05-04 15:47 40.77189 -3.84333 37968 ft 480 kts 20°
2026-05-04 15:48 40.83238 -3.80555 37962 ft 481 kts 20°
2026-05-04 15:48 40.92299 -3.74879 37966 ft 481 kts 20°
2026-05-04 15:49 40.98345 -3.71082 37961 ft 481 kts 20°
2026-05-04 15:49 41.04389 -3.67280 37979 ft 481 kts 21°
2026-05-04 15:50 41.10427 -3.63474 37960 ft 480 kts 21°
2026-05-04 15:50 41.16465 -3.59718 37969 ft 479 kts 19°
2026-05-04 15:51 41.22606 -3.56304 37969 ft 478 kts 17°
2026-05-04 15:51 41.28769 -3.53010 37968 ft 477 kts 17°
2026-05-04 15:52 41.34921 -3.49692 37966 ft 477 kts 18°
2026-05-04 15:52 41.41065 -3.46336 37967 ft 477 kts 18°
2026-05-04 15:53 41.47201 -3.42965 37954 ft 477 kts 18°
2026-05-04 15:53 41.53344 -3.39582 37973 ft 477 kts 18°
2026-05-04 15:54 41.59439 -3.36218 37965 ft 477 kts 19°
2026-05-04 15:54 41.65576 -3.32824 37963 ft 477 kts 19°
2026-05-04 15:55 41.71709 -3.29426 37961 ft 477 kts 19°
2026-05-04 15:55 41.77848 -3.26018 37964 ft 477 kts 19°
2026-05-04 15:56 41.83976 -3.22609 37965 ft 477 kts 19°
2026-05-04 15:56 41.90097 -3.19197 37963 ft 477 kts 19°
2026-05-04 15:57 41.96211 -3.15782 37971 ft 477 kts 19°
2026-05-04 15:57 42.02321 -3.12362 37966 ft 477 kts 19°
2026-05-04 15:58 42.08452 -3.08923 37964 ft 477 kts 19°
2026-05-04 15:58 42.14575 -3.05480 37963 ft 477 kts 19°
2026-05-04 15:59 42.20704 -3.02028 37969 ft 477 kts 19°
2026-05-04 15:59 42.26830 -2.98569 37969 ft 477 kts 19°
2026-05-04 16:00 42.32959 -2.95102 37979 ft 478 kts 19°
2026-05-04 16:00 42.39045 -2.91652 37982 ft 478 kts 20°
2026-05-04 16:01 42.45047 -2.87782 37979 ft 480 kts 32°
2026-05-04 16:01 42.50314 -2.82183 37984 ft 482 kts 39°
2026-05-04 16:02 42.55356 -2.76163 37982 ft 483 kts 40°
2026-05-04 16:03 42.62851 -2.67001 37980 ft 483 kts 40°
2026-05-04 16:03 42.67859 -2.60908 37996 ft 484 kts 40°
2026-05-04 16:04 42.72871 -2.54822 37993 ft 485 kts 40°
2026-05-04 16:04 42.80413 -2.45646 37994 ft 485 kts 40°
2026-05-04 16:05 42.85432 -2.39519 38001 ft 485 kts 40°
2026-05-04 16:06 42.92954 -2.30311 38010 ft 484 kts 40°
2026-05-04 16:07 43.02977 -2.17985 38016 ft 484 kts 41°
2026-05-04 16:08 43.12925 -2.05681 38016 ft 483 kts 41°
2026-05-04 16:09 43.25381 -1.90216 38006 ft 483 kts 41°
2026-05-04 16:10 43.36046 -1.79160 38019 ft 482 kts 29°
2026-05-04 16:11 43.47331 -1.69254 38020 ft 482 kts 32°
2026-05-04 16:12 43.64093 -1.53984 38016 ft 481 kts 32°
2026-05-04 16:13 43.75226 -1.43838 38002 ft 479 kts 32°
2026-05-04 16:14 43.86300 -1.33698 38000 ft 478 kts 33°
2026-05-04 16:16 44.00142 -1.20956 37987 ft 477 kts 33°
2026-05-04 16:17 44.13959 -1.08167 37990 ft 478 kts 33°
2026-05-04 16:18 44.25010 -0.97883 37974 ft 478 kts 34°
2026-05-04 16:19 44.38845 -0.85015 37962 ft 478 kts 29°
2026-05-04 16:20 44.53938 -0.75357 37951 ft 478 kts 22°
2026-05-04 16:22 44.69197 -0.66059 37966 ft 478 kts 23°
2026-05-04 16:23 44.87483 -0.54780 37964 ft 478 kts 23°
2026-05-04 16:25 45.05715 -0.43459 37944 ft 478 kts 23°
2026-05-04 16:26 45.27063 -0.30102 37928 ft 477 kts 23°
2026-05-04 16:28 45.42234 -0.20542 37933 ft 476 kts 24°
2026-05-04 16:31 45.77597 0.01961 37941 ft 475 kts 24°
2026-05-04 16:32 45.95717 0.13615 37933 ft 476 kts 24°
2026-05-04 16:33 46.07803 0.21434 37923 ft 476 kts 24°
2026-05-04 16:34 46.16859 0.27318 37916 ft 476 kts 24°
2026-05-04 16:35 46.34933 0.39125 37925 ft 476 kts 24°
2026-05-04 16:36 46.43982 0.45069 37934 ft 476 kts 24°
2026-05-04 16:37 46.53026 0.51031 37935 ft 476 kts 24°
2026-05-04 16:37 46.59279 0.54056 37926 ft 474 kts 13°
2026-05-04 16:38 46.65687 0.56297 37921 ft 474 kts 12°
2026-05-04 16:39 46.81765 0.61534 37931 ft 473 kts 11°
2026-05-04 16:40 46.94569 0.65780 37928 ft 473 kts 12°
2026-05-04 16:41 47.10726 0.69816 37917 ft 471 kts
2026-05-04 16:43 47.27043 0.71502 37930 ft 470 kts
2026-05-04 16:43 47.36815 0.72514 37939 ft 469 kts
2026-05-04 16:44 47.49804 0.74294 37940 ft 469 kts 13°
2026-05-04 16:45 47.56080 0.76993 37937 ft 470 kts 17°
2026-05-04 16:46 47.71576 0.84677 37912 ft 469 kts 18°
2026-05-04 16:47 47.83976 0.90842 37923 ft 469 kts 18°
2026-05-04 16:48 47.96339 0.97079 37928 ft 469 kts 18°
2026-05-04 16:49 48.08690 1.03354 37923 ft 469 kts 18°
2026-05-04 16:50 48.20990 1.09629 37921 ft 468 kts 18°
2026-05-04 16:51 48.30280 1.14367 37925 ft 467 kts 18°
2026-05-04 16:52 48.42547 1.20640 37915 ft 467 kts 18°
2026-05-04 16:53 48.51769 1.25378 37916 ft 466 kts 18°
2026-05-04 16:54 48.64062 1.31622 37912 ft 466 kts 18°
2026-05-04 16:55 48.82508 1.40943 37924 ft 466 kts 18°
2026-05-04 16:56 48.97516 1.49861 37919 ft 465 kts 36°
2026-05-04 16:57 49.04429 1.60135 37915 ft 464 kts 49°
2026-05-04 16:58 49.12933 1.74938 37921 ft 463 kts 50°
2026-05-04 17:00 49.25722 1.97103 37932 ft 464 kts 50°
2026-05-04 17:01 49.36360 2.15664 37940 ft 463 kts 50°
2026-05-04 17:02 49.44853 2.30540 37937 ft 464 kts 50°
2026-05-04 17:03 49.51226 2.41773 37935 ft 464 kts 50°
2026-05-04 17:03 49.58310 2.51786 37928 ft 462 kts 34°
2026-05-04 17:04 49.69133 2.62417 37924 ft 463 kts 32°
2026-05-04 17:05 49.80038 2.72948 37918 ft 461 kts 32°
2026-05-04 17:06 49.88197 2.80924 37926 ft 462 kts 32°
2026-05-04 17:07 49.95435 2.88030 37930 ft 462 kts 32°
2026-05-04 17:07 50.01781 2.94278 37929 ft 462 kts 32°
2026-05-04 17:08 50.09905 3.02306 37927 ft 462 kts 32°
2026-05-04 17:09 50.15328 3.07683 37932 ft 462 kts 32°
2026-05-04 17:09 50.20751 3.13075 37931 ft 462 kts 32°
2026-05-04 17:10 50.35244 3.23896 37929 ft 462 kts 24°
2026-05-04 17:11 50.41121 3.28029 37942 ft 463 kts 25°
2026-05-04 17:12 50.49796 3.34734 37938 ft 463 kts 27°
2026-05-04 17:13 50.64435 3.45113 37941 ft 462 kts 23°
2026-05-04 17:14 50.75279 3.52550 37943 ft 462 kts 23°
2026-05-04 17:15 50.84108 3.58688 37951 ft 462 kts 24°
2026-05-04 17:15 50.90034 3.62677 37681 ft 462 kts 15°
2026-05-04 17:16 50.96376 3.64038 35244 ft 467 kts
2026-05-04 17:16 51.06226 3.64659 31567 ft 466 kts
2026-05-04 17:17 51.09428 3.64858 30643 ft 457 kts
2026-05-04 17:17 51.18705 3.65445 27640 ft 433 kts
2026-05-04 17:18 51.21696 3.65636 26656 ft 426 kts
2026-05-04 17:18 51.27530 3.65671 24803 ft 413 kts 358°
2026-05-04 17:19 51.33191 3.65487 23057 ft 399 kts 357°
2026-05-04 17:19 51.38627 3.65312 21445 ft 379 kts 357°
2026-05-04 17:20 51.43718 3.65153 20647 ft 360 kts 358°
2026-05-04 17:20 51.48703 3.64996 19846 ft 356 kts 358°
2026-05-04 17:20 51.51164 3.64920 19444 ft 353 kts 358°
2026-05-04 17:21 51.56051 3.64770 18652 ft 350 kts 358°
2026-05-04 17:21 51.60898 3.64620 17817 ft 345 kts 359°
2026-05-04 17:22 51.63283 3.64547 17419 ft 341 kts 359°
2026-05-04 17:22 51.65651 3.64475 17039 ft 339 kts 359°
2026-05-04 17:23 51.72396 3.66357 15908 ft 331 kts 37°
2026-05-04 17:23 51.73973 3.69035 15528 ft 329 kts 54°
2026-05-04 17:23 51.76459 3.75241 14787 ft 329 kts 57°
2026-05-04 17:24 51.77669 3.78374 14410 ft 329 kts 57°
2026-05-04 17:24 51.81279 3.87632 13255 ft 322 kts 57°
2026-05-04 17:25 51.82472 3.90679 12941 ft 316 kts 57°
2026-05-04 17:25 51.84754 3.96512 12390 ft 303 kts 57°
2026-05-04 17:26 51.86984 4.02219 11712 ft 301 kts 57°
2026-05-04 17:26 51.90423 4.10593 10692 ft 296 kts 45°
2026-05-04 17:27 51.94090 4.12987 10013 ft 291 kts
2026-05-04 17:27 51.98118 4.12617 9168 ft 288 kts 355°
2026-05-04 17:28 52.02103 4.12125 8524 ft 286 kts 355°
2026-05-04 17:29 52.07949 4.12596 7549 ft 281 kts 20°
2026-05-04 17:29 52.13255 4.16573 6595 ft 278 kts 24°
2026-05-04 17:30 52.18453 4.20560 5644 ft 272 kts 25°
2026-05-04 17:31 52.21111 4.24703 5025 ft 270 kts 64°
2026-05-04 17:31 52.23025 4.33092 4155 ft 247 kts 70°
2026-05-04 17:32 52.23177 4.38402 3520 ft 235 kts 108°
2026-05-04 17:33 52.21167 4.45633 2880 ft 232 kts 107°
2026-05-04 17:33 52.20881 4.48195 2881 ft 230 kts 93°
2026-05-04 17:34 52.21771 4.55284 2565 ft 198 kts 55°
2026-05-04 17:34 52.22510 4.57097 2417 ft 186 kts 56°
2026-05-04 17:35 52.24362 4.61923 1704 ft 145 kts 56°
2026-05-04 17:35 52.25361 4.64513 1335 ft 131 kts 54°
2026-05-04 17:35 52.25848 4.65777 1160 ft 132 kts 54°
2026-05-04 17:36 52.26332 4.67035 968 ft 131 kts 54°
2026-05-04 17:36 52.26816 4.68293 788 ft 131 kts 55°
2026-05-04 17:36 52.27282 4.69577 646 ft 131 kts 54°
2026-05-04 17:36 52.27766 4.70827 455 ft 130 kts 53°
2026-05-04 17:37 52.28262 4.72071 263 ft 131 kts 54°
2026-05-04 17:37 52.28749 4.73313 88 ft 129 kts 54°
2026-05-04 17:37 52.29211 4.74518 4 ft 120 kts 54°
2026-05-04 17:37 52.29578 4.75459 1 ft 73 kts 58°
2026-05-04 17:38 52.29763 4.75942 0 ft 39 kts 58°
2026-05-04 17:38 52.29902 4.76305 -1 ft 35 kts 58°
2026-05-04 17:38 52.30048 4.76557 1 ft 30 kts 28°
2026-05-04 17:38 52.30186 4.76676 2 ft 14 kts 28°
2026-05-04 17:39 52.30328 4.76843 2 ft 10 kts 67°
2026-05-04 17:39 52.30371 4.76975 2 ft 14 kts 57°
2026-05-04 17:39 52.30424 4.77113 2 ft 14 kts 55°
2026-05-04 17:40 52.30507 4.77130 2 ft 13 kts 328°
2026-05-04 17:40 52.30585 4.77051 2 ft 13 kts 328°
2026-05-04 17:40 52.30647 4.77079 2 ft 10 kts 74°
2026-05-04 17:40 52.30657 4.77149 3 ft 1 kts 31°
2026-05-04 17:41 52.30674 4.77153 2 ft 5 kts
2026-05-04 17:41 52.30696 4.77155 2 ft 3 kts
2026-05-04 17:41 52.30707 4.77155 2 ft 0 kts
2026-05-04 17:41 52.30708 4.77156 2 ft 0 kts